Orbital Elements at Epoch 2459200.5 (2020-Dec-17.0) TDB
Reference: JPL 17 (heliocentric ecliptic J2000)
Element | Value | Uncertainty (1-sigma) | Units |
e | .142204640447245 | 8.1419e-08 | |
a | 2.573295548770519 | 1.8815e-08 | au |
q | 2.207360980493111 | 2.0613e-07 | au |
i | 15.15887504345627 | 9.0668e-06 | deg |
node | 18.29257475508724 | 2.5495e-05 | deg |
peri | 302.9851135522835 | 3.8423e-05 | deg |
M | 181.6832601094569 | 3.6276e-05 | deg |
tp | 2459947.331357811761 (2023-Jan-02.83135781) | 0.00015826 | TDB |
period | 1507.762473547177 4.13 | 1.6537e-05 4.528e-08 | d yr |
n | .2387643984486896 | 2.6187e-09 | deg/d |
Q | 2.939230117047926 | 2.1491e-08 | au |
|
| | Orbit Determination Parameters
Additional Information
|